Location: Julian California
(33.0790°N, 116.6010°W)
Time: 01:50:59
(UTC-07:00)

Cosmos 1452 Rocket - Pass Details

Date: 14 June 2018
Orbit: 768 x 775 km, 74.1° (Epoch: 19 August)

Event Time Altitude Azimuth Distance (km) Brightness Sun altitude
Rises 22:27:12 0° 343° (NNW) 3,252 7.9 -24.5°
Reaches altitude 10° 22:29:35 10° 343° (NNW) 2,322 6.9 -24.8°
Maximum altitude 22:34:53 90° 244° (WSW) 777 3.4 -25.4°
Enters shadow 22:35:16 78° 165° (SSE) 793 3.3 -25.5°
